RH
46 52 54 55 64 66 67 63 66 76 77 86 103 108 105 102 101 101 102 100 99 99 97 95 94 92 90 90 89 87 83 81 80 80 80 79 77 77 75 74 73 71 73 79 84 86 85 82 78 75 69 63 56 51 51 53 56 57 52 44 34 25 18 14 13 14 16 19 22 25 26 27 29 30 31 32 32 32 32 32 33 34 34 33 32 32 31 31
44 52 52 55 70 73 71 65 64 74 77 83 99 101 93 93 95 96 97 98 100 99 95 92 91 89 88 87 85 82 81 81 81 81 79 78 75 73 71 70 71 75 81 85 86 84 81 77 70 63 55 51 52 54 56 52 43 34 24 17 15 15 18 21 24 27 28 29 30 29 28 27 28 29 30 31 32 32 31 32 33 34 35 36 36 37 37 37
42 53 54 57 72 77 75 69 65 70 74 79 94 96 88 89 93 94 98 103 105 100 92 87 85 85 85 84 83 83 82 82 82 81 77 73 71 70 70 72 77 82 85 84 82 79 73 65 58 55 57 59 57 49 37 25 17 15 16 20 24 27 29 29 29 28 27 26 26 25 24 24 25 26 28 30 31 31 31 32 33 34 34 35 36 35 36 36
39 55 58 58 70 79 79 75 71 71 72 76 90 95 90 91 93 94 101 108 108 102 93 89 86 85 86 84 84 84 85 87 85 79 74 72 73 75 77 81 84 85 83 80 75 67 61 60 63 67 64 53 36 22 15 16 20 25 29 30 30 28 27 25 25 25 25 26 28 29 30 30 30 30 31 32 33 34 34 34 35 36 37 37 38 37 37 37
34 52 59 61 71 78 79 81 81 78 73 74 86 95 93 90 90 93 103 108 109 109 99 89 86 85 84 85 87 91 92 90 83 80 80 80 83 84 86 86 84 82 77 71 65 62 65 68 65 53 36 23 18 20 26 30 31 31 29 27 26 26 26 27 27 28 29 29 29 29 29 29 28 28 27 27 27 28 28 29 30 32 33 34 35 36 37 37
29 45 58 65 73 77 78 82 84 80 74 74 85 94 94 90 89 96 105 106 107 112 103 90 86 85 87 92 95 96 94 90 86 89 91 90 90 89 86 83 79 75 69 67 69 71 67 53 35 23 19 24 29 33 33 30 28 26 26 26 27 27 27 27 26 25 23 23 22 21 21 21 21 20 20 19 19 19 20 21 21 23 24 25 25 26 28 29
23 37 52 64 73 75 77 81 81 78 74 77 87 94 99 96 92 98 103 103 107 113 109 96 92 95 97 98 95 96 97 93 93 99 99 94 90 86 82 79 74 70 71 74 71 57 39 25 22 26 31 33 32 29 27 26 26 26 26 25 23 22 20 19 18 18 17 17 17 18 19 19 20 20 20 19 19 19 20 20 20 21 21 21 22 21 22 22
18 28 44 57 67 71 78 85 84 83 79 84 95 98 107 104 91 93 94 99 109 112 107 99 99 101 98 97 98 102 102 97 98 102 97 90 87 83 80 76 74 76 74 62 43 28 24 27 32 33 31 28 26 26 26 25 23 22 19 18 17 17 17 18 19 19 20 21 21 23 24 25 26 25 25 25 24 24 24 25 25 26 26 26 25 25 25 24
17 22 33 47 60 69 81 93 96 94 88 93 102 101 110 108 91 89 90 96 108 108 104 101 101 100 97 99 103 104 103 100 99 96 91 88 86 81 79 81 80 71 51 33 26 29 32 33 30 27 26 26 26 24 21 20 18 17 18 19 20 21 22 23 23 24 25 26 26 27 28 30 30 29 29 28 28 27 27 28 28 28 29 29 29 28 28 27
18 21 26 37 51 64 83 99 103 103 99 101 108 106 111 109 94 89 88 93 103 104 101 101 102 102 102 103 105 105 102 97 94 92 90 86 84 84 84 78 61 41 29 29 33 33 30 27 27 26 25 23 20 19 18 19 20 21 23 24 24 24 25 25 25 25 26 26 26 27 28 30 30 30 29 29 29 29 29 29 29 30 30 30 29 28 28 28
19 22 26 34 47 64 85 101 106 109 108 107 109 108 108 105 96 89 87 93 99 98 99 102 103 103 104 105 104 101 96 94 93 89 86 86 88 85 69 48 34 30 33 34 31 28 27 27 25 22 20 19 19 21 22 23 24 24 24 24 24 23 23 24 23 23 24 24 24 25 26 29 30 30 29 29 30 29 29 29 30 30 30 29 28 27 26 26
19 24 30 38 50 69 89 102 108 110 109 109 108 104 102 101 97 91 90 93 95 97 101 103 103 104 106 103 98 95 93 92 89 87 91 92 81 59 39 31 33 35 32 28 27 26 25 22 20 19 20 22 23 24 24 24 23 23 22 22 22 21 22 22 22 22 23 23 24 23 25 29 29 27 28 29 30 30 29 30 31 31 30 30 28 27 26 26
20 27 35 44 55 72 89 100 107 109 110 110 105 100 102 104 98 92 93 96 97 100 103 105 107 107 102 97 95 93 90 89 92 96 92 73 49 34 33 34 33 29 27 27 25 22 20 20 21 23 23 24 24 24 23 23 22 22 21 21 22 21 21 21 21 22 23 24 25 23 24 29 30 28 28 30 32 32 32 32 32 31 30 30 30 29 29 29
24 32 39 47 57 70 84 98 106 109 109 106 103 103 106 103 96 96 99 100 102 104 107 108 106 101 97 95 93 91 93 98 97 83 60 41 33 34 33 30 27 27 25 23 21 21 23 24 25 25 25 24 23 23 22 22 21 20 20 20 21 22 23 23 24 25 26 27 27 26 25 29 31 30 29 30 32 32 32 31 30 29 29 29 29 30 30 29
27 34 40 46 53 65 79 92 100 104 106 106 106 105 102 99 101 107 106 104 106 109 109 105 100 97 95 92 92 99 102 91 69 47 36 34 34 31 29 27 26 23 21 22 24 26 26 26 26 25 24 23 22 21 20 20 21 21 23 25 26 29 30 30 28 27 28 29 29 27 26 27 29 29 30 30 31 31 31 30 29 29 29 30 30 30 30 29
27 33 39 45 52 62 73 85 95 101 104 103 101 100 103 106 108 109 108 108 108 108 105 100 96 93 93 98 101 97 79 54 39 34 34 33 30 27 26 23 21 21 24 26 26 26 25 25 23 22 21 21 21 21 21 23 25 27 29 30 31 31 31 32 30 28 28 29 30 28 27 28 29 28 29 30 30 30 29 29 28 28 28 28 28 27 26 26
27 32 38 46 54 64 74 84 90 93 94 95 99 105 108 108 106 107 109 109 105 102 99 96 93 94 100 99 85 63 44 36 35 34 31 28 26 23 22 22 24 27 27 26 26 25 23 22 21 21 22 23 25 26 27 28 29 30 30 31 31 31 31 32 32 31 30 30 31 29 27 27 26 26 26 26 26 25 25 25 24 24 24 23 23 22 22 22
28 33 40 48 58 67 74 80 84 88 94 100 105 108 108 107 107 108 109 105 100 96 93 95 100 101 91 70 49 38 35 35 32 28 26 23 22 23 26 28 28 26 25 24 23 22 21 22 24 25 28 30 32 32 31 31 31 31 32 33 34 35 34 33 33 32 31 32 33 30 30 30 29 28 26 24 23 23 22 22 21 21 20 20 20 20 20 19
31 37 45 53 61 67 74 80 88 96 101 105 107 107 107 108 108 108 104 97 94 94 98 102 98 81 58 40 35 35 32 29 26 24 23 23 26 29 29 27 25 24 23 22 22 23 25 27 30 32 33 34 34 34 34 34 34 34 35 35 35 36 36 34 33 32 29 31 34 31 29 31 31 30 27 25 24 23 22 21 21 20 19 19 19 19 19 19
35 42 50 57 63 71 81 89 96 102 105 106 106 106 108 108 106 100 93 91 96 101 97 82 63 46 36 35 33 29 26 24 24 25 27 30 30 27 25 24 23 22 22 25 27 29 31 33 34 33 32 33 34 34 34 34 34 36 37 37 36 35 36 34 32 32 30 28 31 31 29 29 28 28 26 25 25 23 22 21 20 19 19 19 19 18 17 16
38 46 54 62 71 80 89 96 101 104 105 106 106 106 103 98 93 92 94 99 96 83 64 46 37 34 33 31 27 24 24 26 28 30 30 29 26 24 23 23 23 24 26 29 30 31 32 31 30 30 31 34 34 34 34 34 35 37 38 38 37 36 37 39 35 32 31 29 30 30 29 30 28 27 27 26 25 23 21 20 19 18 18 18 17 15 14 13
42 50 60 69 79 87 94 99 102 104 104 103 99 93 88 87 94 100 99 88 67 47 38 35 34 32 28 25 24 24 27 30 31 29 26 24 23 22 22 23 25 26 26 27 27 28 29 30 32 33 34 35 36 37 37 36 36 38 40 40 40 38 37 42 44 41 36 31 31 31 30 30 29 29 28 27 25 23 21 19 18 17 16 16 14 14 13 12
49 57 65 73 81 88 94 98 98 96 91 85 82 83 88 94 95 84 67 52 39 34 34 33 29 26 24 25 26 29 30 29 27 24 24 23 22 22 23 24 25 25 26 26 27 29 32 34 36 35 35 36 37 39 40 40 41 42 43 42 42 42 38 39 43 44 42 33 28 28 28 26 25 26 26 25 23 20 19 18 16 16 14 13 13 12 12 11
54 60 67 74 80 84 85 83 80 77 76 79 83 84 82 73 59 46 37 35 34 33 30 26 25 24 25 28 30 30 28 25 24 22 22 22 23 25 25 25 27 28 29 30 31 33 35 35 35 34 34 35 36 40 42 44 45 45 45 46 45 44 43 40 37 38 42 38 29 25 25 24 21 21 22 20 18 17 16 15 13 13 12 11 11 10 10 9
57 63 68 71 71 71 69 70 73 77 79 77 68 57 48 41 36 34 33 33 31 28 25 24 26 28 29 31 29 27 24 23 22 22 24 26 26 26 27 28 30 30 31 31 32 34 35 35 34 34 34 35 36 39 41 43 45 46 45 47 47 44 43 42 37 35 37 37 32 25 23 23 21 19 18 16 15 15 13 12 11 11 11 10 10 10 9 9
58 60 60 60 63 65 68 73 72 65 57 49 40 36 34 33 33 32 31 28 25 23 25 27 30 31 30 28 25 23 23 22 23 24 26 26 25 28 31 32 31 32 32 32 31 33 36 35 35 35 36 38 38 38 42 45 46 46 44 44 43 41 39 39 38 34 33 34 30 24 21 22 22 19 16 14 12 12 10 10 11 10 10 10 10 10 9 9
52 53 55 59 61 61 62 58 46 37 35 34 33 33 32 32 32 30 27 23 22 26 30 30 30 28 26 24 23 23 23 24 24 24 25 26 30 33 35 37 37 37 36 33 34 37 38 37 36 38 39 40 40 40 44 47 47 45 42 40 39 37 36 36 36 32 31 31 26 21 20 19 19 17 14 12 11 10 10 11 11 11 11 10 10 9 9 8
45 47 49 48 44 38 37 35 30 31 32 31 30 31 32 31 28 24 22 23 28 33 32 29 26 25 24 23 23 23 24 25 26 28 29 31 35 37 41 44 44 42 40 36 37 41 41 39 39 41 43 46 45 43 44 46 47 43 39 37 35 33 32 32 33 31 31 32 25 19 19 17 16 14 11 11 11 10 10 10 11 11 10 10 9 9 8 8
34 35 33 30 27 27 29 30 29 29 28 29 33 33 29 24 22 24 27 30 32 31 28 26 24 23 22 23 23 23 25 27 29 32 34 37 41 44 47 49 48 46 44 40 39 44 45 41 42 46 46 50 51 48 46 45 45 42 37 36 34 30 29 29 28 29 30 30 24 17 16 15 13 12 10 9 9 9 10 10 10 10 9 9 8 8 7 7
26 26 25 25 26 27 27 26 26 29 33 35 31 25 22 23 27 31 31 30 29 27 24 23 22 22 21 22 23 25 27 28 30 33 39 44 47 48 50 50 50 50 51 49 42 43 48 45 45 49 48 51 55 52 48 46 44 42 36 33 33 30 28 27 25 23 25 27 23 16 14 13 11 10 9 8 9 9 10 10 9 8 8 7 7 7 6 7
24 24 24 24 24 23 24 28 32 35 33 27 22 22 26 29 31 31 29 28 25 23 22 22 22 22 23 26 28 30 31 34 41 48 52 53 52 52 53 53 55 58 63 66 56 47 51 50 46 50 51 51 54 54 51 48 44 42 37 30 27 26 24 24 23 20 22 26 24 16 13 13 12 10 10 9 9 9 9 9 8 7 7 7 7 7 7 7
22 21 21 21 23 27 32 35 33 28 22 21 25 29 30 30 30 28 26 24 22 22 22 22 23 25 29 31 30 32 36 46 57 63 61 60 57 55 54 53 55 57 62 72 71 59 56 59 54 54 57 53 53 55 52 49 45 41 37 30 22 19 17 17 16 15 16 19 18 13 11 12 11 10 9 9 9 9 9 8 7 7 7 7 7 7 7 6
19 20 22 27 32 35 34 28 22 19 21 27 31 30 29 29 27 25 23 23 23 23 22 24 28 31 33 32 34 41 50 57 63 64 61 58 55 52 51 50 49 52 55 64 73 66 57 61 62 59 62 60 54 53 50 46 43 38 33 28 21 15 12 12 11 10 11 13 13 11 11 11 10 9 9 9 9 8 8 7 7 7 7 6 6 6 5 5
23 27 32 35 34 29 23 20 21 24 29 32 31 29 28 26 24 23 24 24 23 23 25 30 33 34 34 37 46 56 63 66 65 62 59 56 54 52 51 50 49 52 56 61 73 75 61 56 61 59 60 62 57 52 50 44 39 36 31 26 22 17 12 11 10 9 9 10 10 10 10 11 10 8 8 8 9 8 7 7 7 7 6 5 5 5 4 4
32 34 32 27 22 19 20 24 28 31 33 31 27 27 26 24 24 24 24 24 24 25 29 32 33 34 38 45 56 65 68 67 63 60 57 54 54 53 53 54 55 56 60 62 71 82 75 62 62 62 58 60 60 55 53 48 42 38 32 26 23 19 15 12 10 10 8 8 9 9 10 10 8 8 8 8 9 8 7 7 6 6 5 5 5 4 4 3
31 25 20 18 19 21 26 30 33 34 31 27 25 26 24 23 25 25 24 25 27 30 33 35 36 39 45 54 63 68 68 64 61 59 57 54 54 55 56 58 60 61 64 64 65 78 85 76 69 69 66 63 65 64 61 55 47 39 33 27 23 19 15 12 10 9 8 7 8 8 9 9 7 8 9 9 9 8 6 6 5 5 5 5 5 4 3 3
21 17 17 20 23 27 31 34 35 31 25 24 26 25 23 25 26 25 27 29 32 35 36 40 43 47 56 64 68 68 65 62 60 58 56 56 56 58 61 63 64 66 67 67 65 71 84 86 79 77 75 69 68 69 68 61 51 42 34 27 21 17 15 12 9 8 7 7 7 8 10 9 7 7 8 8 8 7 6 5 5 4 4 4 4 3 3 3
16 18 22 26 28 31 34 36 32 25 23 25 26 24 25 27 27 28 31 34 36 38 40 46 52 56 62 69 70 67 64 62 60 58 57 57 58 61 66 67 67 68 68 68 68 68 77 88 87 81 77 73 69 69 69 65 54 44 35 27 20 15 12 11 9 8 7 7 6 8 11 9 7 6 7 7 7 5 5 4 4 3 3 3 3 3 3 2
20 24 29 31 31 34 35 32 27 24 26 27 25 26 28 29 30 33 36 38 39 42 46 53 59 63 67 69 69 67 65 63 60 58 57 58 61 65 68 69 68 69 69 68 69 69 72 82 90 89 82 75 70 66 66 64 56 45 36 27 19 14 11 10 10 8 7 7 6 8 10 9 6 6 7 6 5 5 4 3 3 3 3 3 3 3 2 3
26 30 32 32 33 35 32 26 25 26 27 27 27 29 30 31 34 37 38 40 42 46 52 59 66 70 70 68 68 67 66 63 60 58 58 59 62 65 68 70 69 68 70 70 70 70 71 77 88 93 90 83 76 67 61 60 54 42 33 25 18 14 11 9 9 9 8 8 7 7 10 9 6 6 6 5 5 4 3 3 3 3 3 3 3 3 3 3
30 33 33 33 34 31 26 26 28 28 27 28 30 31 33 35 38 40 40 42 46 51 58 66 72 73 70 68 69 67 65 63 60 59 59 60 62 64 66 68 68 69 71 72 73 74 74 76 83 91 91 84 77 68 58 53 49 41 33 25 18 13 10 9 8 8 9 8 7 8 10 9 7 6 5 5 5 4 3 3 3 3 3 3 3 4 3 3
32 35 34 34 32 27 27 29 29 27 29 31 32 34 37 39 41 42 43 46 52 58 65 71 73 72 69 68 68 67 64 62 61 59 60 62 62 62 63 64 66 69 71 73 75 75 75 76 82 93 99 95 89 80 68 56 49 44 37 28 19 14 11 9 8 8 9 9 8 8 10 9 6 6 5 4 4 4 3 3 3 3 3 4 4 4 3 3
35 35 34 33 31 29 31 31 28 29 32 33 34 38 41 43 45 45 46 51 58 64 71 74 73 70 70 68 66 64 63 62 61 60 61 62 61 60 60 61 64 67 70 73 76 77 77 75 76 85 96 103 103 95 83 71 58 48 40 31 22 15 11 10 9 8 9 10 8 7 8 8 7 5 5 4 4 4 3 4 3 3 4 4 4 4 4 3
36 34 33 32 31 31 32 30 29 32 33 34 38 42 45 47 47 47 51 58 64 69 74 74 71 70 69 66 63 61 61 62 62 60 60 61 61 59 57 57 61 66 69 72 76 80 83 81 76 74 79 85 88 84 76 69 61 50 41 34 24 16 12 10 9 8 8 10 10 7 7 7 6 5 4 4 4 4 4 4 4 4 4 5 4 4 4 3
35 34 34 33 32 32 32 30 31 33 34 38 43 45 48 50 49 51 57 64 68 72 74 73 70 66 63 61 62 62 62 63 62 60 60 61 59 56 53 55 59 64 66 68 72 78 85 87 84 80 80 81 82 81 73 64 58 50 41 34 26 17 13 10 8 7 7 9 10 8 7 6 6 5 4 4 3 3 4 4 4 4 4 4 4 4 3 3
36 36 36 33 32 32 31 30 32 34 37 42 47 49 51 51 51 57 62 65 70 73 72 69 63 59 59 61 64 66 66 65 63 60 59 60 57 53 51 53 57 61 63 64 67 73 81 89 91 89 91 94 95 96 90 76 64 53 42 34 27 19 12 9 8 7 7 7 9 9 7 6 5 5 4 3 3 3 3 3 4 4 4 4 3 3 3 3
38 38 35 33 32 31 31 31 33 37 42 47 50 53 53 50 52 59 63 66 70 70 65 60 57 57 60 63 66 68 69 67 64 60 59 58 55 50 49 51 55 58 60 61 64 67 73 83 92 93 96 101 103 103 101 91 75 60 45 34 27 20 12 9 7 7 7 7 7 8 7 5 5 4 4 3 3 3 3 3 3 3 3 4 3 3 3 2
39 37 34 32 32 32 32 33 36 40 46 49 51 53 52 51 53 59 64 67 66 60 55 55 57 61 64 66 68 70 71 69 64 60 58 55 52 49 48 49 53 55 57 59 60 62 66 73 84 90 94 99 102 101 101 95 80 64 49 35 27 20 13 9 8 7 7 7 6 7 7 6 5 4 4 3 2 2 2 2 3 3 3 3 3 3 3 2
39 36 33 32 33 33 33 35 39 44 48 50 51 51 51 51 55 60 64 62 57 52 52 57 62 66 70 70 70 71 72 69 65 61 58 55 51 48 46 47 49 52 55 57 56 58 60 64 73 82 86 92 98 100 100 95 80 66 53 40 29 22 15 10 8 6 7 7 7 7 7 6 5 4 4 3 3 2 2 2 3 3 3 3 3 3 3 2
39 35 33 34 35 35 35 38 42 46 47 49 51 50 49 53 58 61 59 54 52 53 56 61 65 70 74 75 74 74 72 68 65 61 58 56 52 47 44 44 46 48 52 55 55 55 55 58 65 73 76 81 89 94 98 96 85 70 57 44 32 23 15 10 7 6 5 6 7 7 7 6 5 5 4 4 3 2 2 3 3 3 3 3 3 3 3 3
39 35 34 37 37 36 37 41 43 45 47 48 49 49 51 56 60 58 53 51 54 57 60 63 67 71 77 79 77 76 73 68 64 59 55 55 53 49 44 41 41 45 49 52 53 52 53 54 58 65 69 72 77 84 89 91 84 70 56 44 32 23 16 10 8 6 5 6 6 6 6 5 4 4 4 4 3 3 2 2 2 3 3 3 3 3 3 3
39 36 35 38 39 37 39 43 44 44 46 47 47 48 54 58 57 53 52 54 57 59 62 65 68 73 79 81 79 78 76 71 65 58 53 52 51 48 43 39 39 41 45 49 51 51 51 52 53 58 64 65 68 76 79 78 75 65 53 41 31 23 17 11 7 7 6 6 6 6 5 5 4 3 4 4 3 2 2 2 2 2 3 3 3 3 2 3
Wind_Speed
53 51 50 46 44 43 41 39 36 34 33 32 32 32 33 33 33 33 33 34 34 35 36 37 38 38 39 40 42 43 44 46 48 50 52 54 56 58 59 60 61 62 63 64 65 66 68 69 71 72 73 75 75 75 74 74 73 74 75 76 76 75 74 71 69 67 66 65 65 66 67 67 66 67 68 69 70 71 71 71 71 72 73 74 75 76 77 79
51 50 49 47 46 44 42 39 37 35 34 34 33 33 32 32 32 32 33 33 34 35 36 38 38 39 40 41 42 43 45 47 49 52 54 56 58 59 60 61 62 62 63 64 66 68 69 71 73 74 74 73 73 72 73 74 74 73 72 71 69 68 67 66 65 65 66 66 67 69 69 69 70 70 71 72 73 74 75 75 75 76 77 77 78 79 80 81
50 49 49 47 47 45 43 40 38 36 35 35 34 33 32 31 32 32 33 33 33 34 36 37 39 40 41 42 43 44 47 49 51 53 55 56 58 59 60 61 62 63 65 66 68 69 71 73 73 73 72 72 73 73 73 72 69 67 65 64 65 65 66 67 67 68 69 70 71 72 73 73 73 73 74 74 75 77 78 78 79 80 80 81 82 83 84 85
49 49 49 48 47 46 44 42 40 38 36 35 34 33 31 31 32 32 32 32 33 34 35 37 39 40 41 43 44 46 48 50 53 54 55 56 58 59 60 61 63 65 66 68 70 71 72 71 71 72 73 73 72 70 68 66 64 63 64 65 66 67 69 70 70 71 72 72 73 74 75 76 77 77 77 77 77 78 79 80 81 82 83 84 85 86 87 88
48 49 49 47 47 46 45 43 42 41 37 36 35 33 32 32 32 32 32 33 34 35 36 37 39 41 42 44 46 48 50 52 54 55 56 57 58 60 61 63 65 67 68 70 71 70 70 70 71 72 71 69 66 64 63 64 64 65 66 67 68 69 70 71 72 72 73 74 74 76 77 78 79 79 80 79 79 80 80 82 83 84 85 86 87 89 90 90
47 48 48 47 48 46 45 43 43 41 39 37 35 34 33 32 32 32 33 34 35 36 37 38 40 42 44 46 48 50 51 53 54 56 57 58 60 62 63 65 67 69 70 70 69 70 71 71 70 68 65 63 62 63 64 65 66 67 68 69 70 70 71 72 72 73 73 73 74 75 76 78 79 80 80 80 80 80 81 82 83 84 86 87 88 89 91 92
46 47 47 48 48 46 44 42 41 40 39 37 35 34 33 33 33 34 35 36 37 37 38 40 41 43 45 47 49 51 53 54 56 57 58 60 61 63 65 67 68 69 69 69 70 71 70 67 64 62 62 63 64 65 66 68 68 69 70 70 70 70 71 71 71 71 72 72 72 73 75 77 79 79 80 80 79 80 81 82 83 85 86 87 88 89 90 92
44 46 47 47 47 45 44 42 40 40 39 38 36 35 34 34 35 36 37 37 38 39 40 41 43 45 46 48 50 52 54 56 57 58 60 61 63 65 67 68 68 68 69 70 70 67 64 62 61 62 64 65 66 67 68 68 69 69 69 69 69 68 69 69 69 70 71 71 71 72 74 76 79 79 80 80 80 80 81 82 83 85 86 88 89 90 91 91
42 44 46 46 46 44 43 42 41 40 39 38 37 36 36 36 36 37 38 38 39 40 41 43 45 46 48 50 52 54 55 57 58 60 61 63 65 66 67 67 68 69 69 67 63 61 61 62 64 65 65 66 66 66 66 66 66 66 66 66 66 66 67 68 69 69 70 71 71 71 72 76 79 79 79 81 81 81 81 82 84 85 87 88 89 90 91 91
40 43 44 44 45 44 43 42 42 41 40 39 38 38 38 39 38 38 39 39 40 41 43 44 46 48 49 51 53 54 56 58 59 61 63 65 66 66 67 68 68 66 63 60 60 61 63 64 65 65 65 65 64 64 63 63 63 63 63 64 64 64 65 66 67 67 68 69 69 69 70 74 78 78 79 80 80 81 81 83 84 86 87 88 90 90 91 91
39 41 42 43 43 43 43 42 42 41 40 40 39 40 40 40 40 39 40 40 42 43 44 46 48 49 51 52 54 56 57 59 60 62 64 64 65 66 67 66 63 60 59 60 62 63 64 64 64 63 62 61 60 59 59 59 59 60 60 62 63 63 63 65 66 66 67 68 68 68 68 73 78 77 78 79 80 81 81 83 84 85 87 88 89 90 90 91
38 39 41 41 41 42 42 42 41 41 40 41 40 40 40 40 40 40 41 42 43 44 46 47 49 50 51 53 55 56 58 60 62 63 63 65 66 66 63 60 58 59 61 62 63 63 62 62 60 59 57 56 56 56 56 58 58 59 60 62 64 65 65 66 67 67 68 69 70 69 67 73 79 78 78 80 81 82 83 84 85 86 87 88 90 91 91 92
37 38 39 40 40 41 41 41 41 41 41 41 40 40 40 40 40 40 41 43 44 45 46 48 49 50 52 54 55 57 59 61 61 62 64 65 63 60 58 57 59 60 61 61 60 59 58 57 55 54 54 54 55 56 57 59 60 61 62 64 66 67 68 68 69 69 69 70 72 72 68 71 79 80 79 81 83 84 85 86 88 88 89 90 91 92 93 94
36 37 38 39 39 39 40 40 40 41 40 40 40 40 40 40 40 41 42 43 44 45 46 48 50 51 52 54 56 58 59 60 62 63 62 59 57 56 58 59 59 59 58 56 55 53 53 53 53 53 54 55 56 58 59 61 63 64 65 65 66 67 68 69 69 68 69 70 73 74 70 70 77 80 80 82 84 86 87 88 89 89 90 91 92 93 95 95
36 36 37 37 37 37 38 39 39 39 38 38 39 39 39 39 40 41 42 43 44 45 47 48 50 52 53 55 56 57 59 60 60 58 55 54 55 57 57 56 55 53 51 50 50 50 51 52 52 54 56 57 58 59 60 62 63 64 64 64 65 65 66 68 69 67 66 69 73 75 72 70 75 78 80 82 84 86 88 89 89 89 90 91 92 94 95 96
35 35 35 35 35 35 36 36 36 36 36 36 37 37 38 39 40 40 41 42 44 45 47 49 51 52 53 54 56 58 59 57 54 53 53 54 55 54 53 51 49 47 47 47 48 50 51 53 54 55 56 57 58 58 58 58 59 59 59 60 61 62 63 66 69 68 65 66 71 75 73 71 74 77 78 81 83 85 87 88 89 89 90 91 92 94 95 96
34 33 33 33 33 33 33 33 33 34 34 35 35 36 37 37 38 39 41 42 44 46 48 49 51 51 53 55 56 56 53 51 51 52 52 52 50 48 47 46 45 46 46 48 49 50 52 53 54 55 55 54 54 53 52 52 53 54 56 57 58 59 60 61 65 65 64 65 68 72 73 72 74 76 78 80 82 85 87 88 89 90 91 92 93 94 95 96
33 33 32 32 31 31 31 31 32 33 33 34 34 35 35 36 37 39 41 43 45 46 48 48 50 52 53 54 52 49 48 49 50 50 48 46 44 43 43 44 45 46 47 48 49 49 50 50 50 49 49 49 49 50 50 50 51 52 54 56 57 59 61 61 62 62 61 64 68 70 71 72 74 77 78 79 82 84 86 88 88 89 91 91 92 93 95 96
32 32 31 30 30 30 30 30 30 31 31 32 32 33 35 36 38 39 41 43 44 45 46 48 50 51 50 48 47 47 47 47 45 43 41 41 41 41 42 43 44 45 46 46 46 46 45 45 45 45 46 48 50 51 52 53 54 55 55 57 57 58 61 63 64 63 61 62 66 69 69 71 74 76 79 80 82 84 86 87 88 89 90 91 92 93 94 95
30 30 29 29 29 28 28 28 28 29 29 30 32 33 35 37 38 40 41 41 42 45 47 49 48 46 44 44 45 45 43 41 39 37 37 38 39 40 41 43 43 44 43 42 43 43 43 43 44 46 48 50 53 54 55 55 56 58 58 59 60 59 60 64 65 65 64 62 64 69 70 72 74 75 78 80 81 83 85 86 88 89 90 91 92 92 93 93
28 28 28 27 26 26 26 26 27 28 29 30 32 34 35 36 37 38 39 41 43 45 45 44 42 41 42 42 40 37 35 34 34 35 36 37 38 40 40 41 40 40 40 40 41 42 43 45 46 48 51 54 56 57 58 58 58 60 61 61 62 61 60 64 66 66 66 64 64 68 70 72 74 75 77 79 80 82 83 85 87 89 90 90 91 91 92 93
27 26 26 25 24 24 25 25 26 27 29 31 32 33 34 34 35 37 40 42 42 41 40 39 40 40 39 36 33 30 30 30 31 33 35 37 38 38 38 38 38 38 39 40 41 43 45 48 50 52 54 57 59 60 61 61 61 61 62 62 63 63 62 63 66 67 69 67 64 66 69 72 74 76 77 78 80 81 83 85 86 87 88 88 89 90 91 92
25 24 24 23 23 24 24 25 26 27 28 29 30 30 32 34 36 38 39 38 37 36 37 37 36 34 31 29 28 29 29 31 32 34 36 36 36 36 37 38 39 41 42 43 45 47 49 52 54 55 57 58 60 62 63 64 64 63 64 64 64 66 66 64 64 66 69 68 65 64 66 70 73 76 78 79 79 81 82 83 84 84 85 86 87 88 89 90
23 22 22 22 22 22 23 24 24 25 26 26 28 30 32 34 35 34 33 33 34 34 34 32 29 27 25 25 27 29 31 32 33 34 34 34 35 37 39 41 43 45 47 48 50 52 54 55 57 58 59 60 61 63 65 66 67 66 66 67 67 68 69 69 67 65 68 70 67 64 65 67 71 75 78 79 79 80 81 81 81 82 83 84 86 87 88 89
20 20 19 19 20 20 20 21 21 23 24 27 28 30 30 30 30 30 31 31 32 30 27 24 23 23 24 25 27 30 31 32 33 33 34 35 37 40 42 45 47 48 50 51 53 55 57 59 60 62 62 62 63 64 66 67 68 68 68 68 69 69 69 70 70 68 68 70 70 67 66 66 69 73 76 77 78 79 79 78 78 80 81 83 84 85 86 87
17 16 16 16 16 16 17 19 21 23 24 25 25 26 26 27 28 29 29 28 25 22 20 20 21 23 24 26 28 30 30 31 31 33 35 37 40 43 47 49 51 52 54 55 56 59 61 62 64 64 65 65 66 66 67 68 68 68 68 68 69 70 70 71 72 71 70 71 72 70 69 69 70 74 75 75 77 77 76 76 77 79 80 81 83 83 84 84
12 11 12 12 14 16 17 19 20 21 21 21 22 23 24 26 26 26 24 20 17 17 18 20 22 24 26 27 28 28 29 30 32 34 37 40 44 48 51 54 55 57 58 59 61 63 64 65 66 67 67 67 67 68 68 69 69 68 68 69 70 70 71 71 72 72 72 73 74 73 72 71 72 75 76 75 76 74 73 75 76 77 78 80 81 81 82 82
8 9 10 12 14 15 16 16 16 17 18 20 21 22 23 23 21 18 16 14 14 16 19 21 23 25 26 26 27 27 30 34 37 40 43 46 49 52 54 57 58 60 62 63 64 65 66 67 68 69 70 70 70 70 70 70 70 70 69 70 71 71 71 71 72 72 72 73 74 73 75 74 72 75 77 76 75 73 72 73 74 75 76 77 78 78 78 79
8 9 11 12 12 12 13 13 15 16 18 19 20 20 18 16 13 12 13 14 15 17 19 21 22 23 24 25 27 29 34 38 41 44 47 49 52 54 56 58 59 62 64 65 66 67 68 69 71 72 72 73 73 73 73 73 72 72 71 71 72 73 72 71 71 71 72 73 72 71 74 76 73 73 74 74 73 72 71 71 71 73 74 74 74 75 76 77
9 9 9 9 10 11 12 13 15 16 16 17 16 13 11 9 9 12 14 15 17 18 20 21 22 22 23 26 30 35 38 41 44 48 50 53 55 56 58 59 61 64 66 68 68 69 71 72 73 75 75 75 76 77 77 76 75 75 73 71 71 71 71 71 71 71 72 72 72 70 72 76 75 71 70 70 70 70 70 69 70 71 71 71 72 73 75 75
7 7 8 8 10 11 12 13 13 14 13 12 9 7 7 9 11 14 15 16 18 19 20 21 22 25 29 33 37 40 43 46 49 51 53 54 56 57 58 60 62 65 68 71 72 72 73 75 76 77 78 78 78 80 80 80 79 78 78 75 72 70 69 69 70 70 71 71 71 70 71 75 76 73 70 68 67 67 67 68 68 68 68 69 71 73 74 74
6 7 7 8 9 10 11 12 11 10 7 5 5 7 9 11 13 15 16 18 19 19 21 23 26 31 35 38 40 42 46 48 50 50 51 51 52 54 56 58 61 64 68 72 75 76 77 78 80 80 81 81 81 81 81 82 82 81 81 80 77 73 68 68 68 67 66 69 70 70 70 72 73 72 71 69 67 67 68 68 68 67 67 68 70 71 72 72
5 6 7 8 9 10 10 8 6 3 3 5 7 9 12 13 15 16 17 18 19 21 24 28 32 36 38 40 43 45 47 48 49 49 49 50 53 55 57 60 62 65 69 73 77 78 79 80 83 83 84 85 85 84 84 84 85 84 84 84 84 80 75 72 71 68 65 66 69 70 71 72 71 70 70 70 70 69 69 70 69 68 67 67 68 69 69 69
4 5 7 8 8 7 5 1 1 4 7 8 9 12 14 15 15 16 17 19 20 23 27 31 35 38 40 42 45 46 47 47 47 48 50 53 56 59 61 63 65 68 71 75 79 81 81 82 84 86 87 88 89 89 89 89 88 88 88 87 87 87 84 80 78 75 70 67 67 69 71 73 71 68 69 70 71 72 72 72 71 70 68 68 69 70 70 69
5 6 6 6 4 1 3 5 7 9 9 9 12 15 15 15 16 17 18 20 23 27 31 34 36 38 40 43 45 45 45 46 47 50 53 55 58 61 63 65 68 71 73 76 80 84 86 86 88 89 90 91 92 93 93 93 92 91 90 89 89 90 88 84 81 79 76 71 69 69 72 74 71 68 68 70 72 73 73 72 72 71 69 69 70 71 70 67
4 3 2 1 3 5 8 10 11 10 9 12 15 16 15 16 17 18 20 23 27 31 34 36 38 40 42 44 44 44 44 46 49 53 56 58 61 63 65 68 70 73 75 78 80 84 88 90 91 93 94 95 96 97 97 96 95 94 93 91 90 90 89 86 81 78 75 72 69 69 72 75 72 69 68 68 70 70 70 70 70 70 69 68 68 68 66 64
2 3 4 6 7 9 10 12 11 9 11 16 17 15 15 16 18 21 24 27 31 34 36 37 39 41 43 43 44 44 46 49 53 56 59 62 64 66 68 70 72 74 77 80 82 85 89 92 94 96 97 98 99 100 100 99 98 97 96 94 92 90 89 88 85 79 74 71 67 68 74 77 74 70 68 68 69 68 66 66 66 65 65 65 65 64 63 62
6 7 9 9 10 11 13 12 9 11 15 17 16 15 16 18 20 24 27 31 34 35 36 38 40 42 43 42 44 46 50 53 56 59 62 64 66 68 70 72 74 76 78 81 84 86 89 93 96 98 99 100 101 101 102 101 101 100 99 97 96 93 91 89 89 85 80 77 72 70 74 79 76 73 71 70 69 68 65 63 61 60 61 62 62 61 59 58
10 12 12 11 12 14 13 10 12 16 18 16 14 16 17 20 24 28 30 33 34 35 37 39 40 41 42 43 45 49 53 56 59 61 63 65 67 70 72 74 75 78 80 83 86 88 91 95 99 101 102 103 103 103 103 102 102 100 100 99 98 96 93 90 89 89 86 84 80 76 77 82 81 77 76 74 73 70 66 63 61 60 61 61 61 60 58 57
14 14 13 13 15 14 12 13 17 19 16 14 15 17 19 23 27 30 32 33 34 36 38 39 40 41 43 45 49 52 55 58 61 63 65 67 69 71 73 75 77 79 82 85 87 90 92 95 99 103 105 105 106 106 106 105 104 102 101 100 99 98 96 92 88 88 87 85 84 81 81 84 84 81 79 77 75 73 70 66 64 64 63 62 62 62 60 58
16 15 14 15 15 12 14 18 19 15 13 14 16 19 23 27 29 31 32 33 34 37 38 39 40 42 45 48 52 55 58 61 63 65 66 68 70 72 74 77 79 81 83 86 89 92 94 96 98 102 105 107 108 108 108 108 107 106 105 103 102 100 99 95 90 88 86 85 84 83 84 86 85 83 81 79 78 77 73 68 65 65 64 63 63 64 64 62
17 16 16 16 14 15 19 19 14 13 14 16 19 23 27 29 30 31 32 33 36 37 38 39 41 43 47 51 54 57 60 62 64 66 67 69 71 73 76 78 80 83 85 88 91 93 95 96 98 102 106 109 109 109 108 107 107 107 107 105 103 102 101 99 95 92 89 86 82 80 81 85 84 83 82 81 79 78 75 70 66 65 65 64 64 64 64 64
17 16 16 16 16 19 20 15 12 14 16 18 23 27 29 29 29 31 33 35 36 37 38 40 43 46 50 52 55 58 61 63 65 66 68 70 72 74 77 79 81 83 86 89 93 95 98 99 99 101 105 108 110 110 110 110 110 108 107 106 105 103 101 99 97 94 91 89 85 79 78 82 83 82 82 82 80 79 77 73 69 66 66 65 65 65 64 63
17 16 16 18 19 20 17 13 14 16 18 23 27 28 28 29 30 32 34 35 36 38 39 42 45 49 52 54 57 59 62 65 66 66 68 70 73 76 78 80 82 85 88 91 94 98 101 103 103 103 105 107 109 110 111 112 113 112 111 110 107 105 103 99 95 93 91 90 89 83 78 79 81 80 80 81 81 79 77 74 71 67 65 64 64 64 63 62
16 17 18 19 19 18 14 13 15 18 22 27 28 28 28 29 31 33 35 36 37 38 41 44 47 50 53 56 59 61 64 66 66 67 69 72 74 77 79 81 83 86 88 92 95 99 103 106 108 110 112 114 116 118 118 117 117 116 114 112 110 107 104 100 95 92 89 88 90 89 84 80 80 79 77 77 77 76 74 73 70 67 65 64 64 63 61 60
18 19 19 18 17 15 13 14 18 22 26 28 27 27 28 29 32 34 35 36 38 40 43 46 49 52 55 58 61 63 65 66 67 68 71 73 76 78 80 82 84 86 89 92 96 99 104 108 111 113 116 120 122 125 125 124 122 120 117 114 112 109 106 102 97 93 89 86 86 89 88 84 83 82 78 76 74 71 70 68 66 64 63 64 64 63 61 59
19 19 17 16 15 14 14 17 21 25 28 27 27 27 28 30 32 34 35 37 39 42 45 49 52 55 58 61 63 65 66 68 69 70 72 75 77 80 81 83 85 87 89 92 96 99 103 107 111 114 117 120 123 125 127 128 127 124 120 117 115 112 107 103 99 94 91 87 84 84 86 85 84 84 83 80 76 71 67 65 64 63 62 63 64 62 60 59
18 17 16 15 15 15 16 19 24 27 27 26 26 27 28 31 33 35 36 38 41 44 48 51 54 57 60 62 64 66 67 69 70 70 73 75 78 81 83 84 85 87 90 92 95 98 102 105 110 113 115 119 122 124 127 128 127 126 123 119 117 114 108 104 101 97 94 92 89 88 89 88 85 84 84 82 78 73 69 67 66 64 63 63 63 62 60 58
16 16 15 15 15 15 17 21 25 26 26 25 26 27 29 31 33 35 37 40 43 47 50 53 56 59 61 63 65 67 68 69 70 72 74 76 79 82 85 86 87 88 90 93 95 97 101 104 108 112 114 117 120 123 126 127 127 126 125 121 118 115 111 106 104 100 97 96 96 94 93 92 90 87 85 82 79 75 72 69 67 66 64 62 62 61 59 58
15 15 14 15 15 16 19 23 25 25 24 25 26 27 29 31 33 36 38 42 45 49 52 55 57 60 62 64 66 68 69 70 72 74 76 78 80 83 86 88 89 90 91 93 95 97 100 103 107 111 113 116 119 121 124 127 128 127 125 123 120 117 113 109 106 103 99 97 97 95 93 91 90 88 87 85 81 77 72 69 67 66 65 62 60 59 58 57
14 13 14 15 16 17 21 24 24 24 24 25 26 27 29 31 33 36 39 43 47 51 54 56 58 60 62 64 66 69 70 72 74 76 78 80 82 85 88 90 91 91 92 93 96 98 100 103 106 110 113 116 119 121 123 125 126 126 125 124 122 120 117 113 110 108 105 101 98 96 93 91 88 87 87 86 83 79 74 70 67 65 65 63 60 58 57 56
13 12 13 15 16 18 21 23 23 24 24 25 26 28 29 31 33 37 40 45 48 52 54 56 59 60 62 64 66 69 71 73 75 78 80 82 84 87 89 92 93 93 93 94 96 99 101 104 106 110 114 116 119 122 124 124 125 126 126 126 124 122 121 117 113 110 108 105 101 98 96 94 92 89 87 86 84 82 79 75 71 67 65 64 61 59 57 55
Wind_Direction
208 209 212 214 216 218 220 222 224 226 228 232 234 236 239 242 246 250 254 258 261 264 266 267 269 271 272 273 275 276 278 279 281 281 282 282 282 283 283 284 285 286 288 289 290 290 290 290 290 290 290 291 291 291 292 292 293 293 293 292 292 291 290 290 290 289 288 287 286 285 284 284 283 282 281 280 279 278 277 276 276 275 274 273 272 272 271 271
208 209 212 213 217 219 221 223 225 228 231 234 237 240 243 247 251 255 259 262 265 267 268 269 270 271 272 274 276 278 280 281 282 282 282 283 283 283 284 285 286 288 289 290 290 290 290 291 291 291 292 292 293 294 294 294 294 294 293 293 292 292 291 291 290 289 288 288 287 286 285 285 284 283 282 282 281 280 279 278 277 276 275 274 273 272 271 271
207 209 212 214 217 220 222 224 227 230 233 236 239 243 248 252 256 259 262 266 268 269 270 270 271 272 273 274 277 279 281 282 283 283 283 284 284 285 286 287 289 290 290 290 291 291 292 293 293 294 295 295 296 296 296 295 295 295 294 294 293 293 292 292 291 291 290 289 289 288 287 286 285 284 282 281 281 280 280 279 278 277 276 275 274 273 272 271
206 209 212 214 217 220 222 225 228 231 234 237 240 245 250 254 258 261 264 267 269 270 270 271 271 272 273 275 278 281 282 283 284 284 284 285 286 287 289 289 290 291 291 291 292 293 294 295 296 297 298 298 298 297 297 297 297 296 295 294 294 294 293 293 292 291 291 290 289 288 287 286 285 283 282 281 280 279 279 278 277 277 276 275 274 273 272 272
205 208 212 214 218 220 223 225 228 230 234 238 241 245 251 255 259 262 265 267 268 270 271 272 273 274 275 277 280 282 283 284 285 285 286 287 288 290 290 291 291 292 292 294 295 296 297 298 299 299 299 299 299 299 298 297 297 296 295 295 294 294 293 292 291 290 290 289 288 288 287 286 285 284 282 281 280 279 278 278 277 276 275 275 274 274 273 272
206 208 212 215 218 221 223 225 228 231 235 239 242 245 251 256 260 263 265 267 269 270 272 274 275 276 277 279 281 283 284 285 286 287 289 290 291 291 292 292 293 294 295 297 298 299 300 300 300 299 299 299 299 298 298 297 297 296 295 294 294 293 292 291 290 290 289 288 288 287 286 285 284 283 282 281 280 279 279 278 277 276 275 274 273 273 272 272
207 208 212 215 219 221 224 226 229 231 235 239 242 246 251 257 261 263 266 268 270 272 274 276 277 278 279 281 282 284 285 286 287 289 290 291 292 293 294 295 296 297 299 300 300 300 300 300 300 300 299 299 299 299 298 298 297 297 296 295 294 293 292 291 290 289 288 288 287 286 285 284 283 282 282 281 280 279 278 277 276 275 274 274 273 272 271 271
209 210 213 216 219 222 224 227 230 233 235 239 242 247 252 257 261 264 267 269 271 273 275 277 279 280 281 282 284 285 286 287 289 291 292 293 294 295 296 298 299 300 301 301 301 300 300 300 300 300 300 300 300 300 300 299 298 298 297 296 295 294 293 291 290 289 288 287 287 286 285 284 283 282 281 281 280 279 278 277 276 275 274 274 273 272 271 271
209 212 213 216 219 222 225 228 231 234 236 239 243 248 253 257 262 266 268 270 272 274 276 278 280 281 282 283 285 286 287 289 291 292 293 295 296 298 299 300 301 301 301 301 301 301 301 302 302 302 302 302 302 301 301 300 299 298 297 296 294 293 292 291 290 289 288 288 287 286 285 284 283 282 281 281 280 279 278 277 276 275 275 274 273 272 272 271
207 212 214 215 219 222 225 228 231 234 237 241 245 250 254 258 263 266 268 270 272 275 278 280 282 283 284 285 286 287 289 291 293 294 296 298 299 300 301 301 301 301 301 301 302 303 303 304 304 304 304 304 303 302 301 300 299 298 297 296 294 294 293 291 291 290 289 288 288 287 286 285 283 283 282 282 281 280 279 278 277 276 275 274 274 273 272 272
206 212 214 215 218 221 225 228 231 235 238 242 246 250 254 259 264 266 269 272 274 277 280 282 283 284 285 286 288 289 291 293 295 297 299 300 300 301 301 301 302 302 303 304 304 305 305 305 305 305 305 304 303 302 301 300 299 298 298 297 295 295 294 293 292 292 291 290 289 288 287 286 284 283 283 283 282 281 280 278 277 276 276 275 275 274 274 273
207 212 215 216 218 221 225 228 232 236 239 243 247 251 256 260 264 267 271 274 277 279 281 282 283 285 286 288 290 291 294 296 298 299 300 301 301 301 302 302 303 304 305 306 306 307 307 306 306 305 304 304 303 302 301 301 301 300 300 299 297 297 296 294 293 292 291 290 288 287 287 285 284 284 284 283 283 282 281 280 279 278 277 277 277 277 276 275
206 211 215 217 219 222 225 229 233 237 240 244 248 253 258 262 265 269 272 275 278 280 281 283 284 286 288 290 292 294 296 298 300 301 301 301 302 302 303 305 306 307 308 308 308 308 307 307 306 305 305 305 305 305 304 303 302 302 301 299 297 296 295 293 292 291 290 289 287 286 285 284 283 284 284 283 282 281 280 279 278 278 278 277 277 277 276 275
206 211 216 218 220 223 226 230 234 238 242 246 251 256 260 263 267 271 274 276 278 281 282 284 286 288 290 293 295 297 299 300 301 301 301 302 303 305 306 307 308 309 309 309 308 307 307 307 308 308 308 307 306 306 304 303 302 301 300 298 296 296 295 293 292 291 291 289 287 286 285 282 281 281 281 280 279 278 277 277 276 276 276 276 276 275 275 274
205 212 216 219 222 225 229 232 236 240 244 248 253 257 261 265 269 272 275 277 280 282 284 286 288 290 293 295 297 299 300 301 301 302 303 304 306 307 308 309 309 310 309 309 309 309 309 309 309 308 308 307 306 305 304 303 302 302 301 299 298 297 296 294 292 291 290 289 287 285 284 282 280 280 279 278 277 277 276 276 276 276 275 275 274 274 273 273
205 211 216 220 223 226 230 233 237 241 246 250 254 259 263 267 271 274 277 279 282 284 286 288 291 293 296 298 299 300 300 301 302 304 306 308 309 309 310 310 310 310 310 311 312 311 311 310 309 308 307 307 306 305 305 304 303 303 301 300 298 297 297 296 295 294 292 290 289 287 286 283 281 279 278 278 277 276 276 276 275 275 274 274 273 273 273 273
205 211 215 219 223 226 230 234 239 243 247 252 257 261 265 268 272 276 279 281 284 286 288 291 293 296 298 299 300 301 302 303 305 307 308 309 310 311 311 312 313 314 314 314 313 312 312 311 311 311 310 310 309 309 308 307 306 305 304 303 303 301 300 299 299 299 298 296 293 291 290 288 285 282 280 279 278 277 277 276 276 276 275 275 274 274 273 273
206 211 215 219 223 227 231 236 240 245 250 254 259 263 267 270 274 277 280 282 285 288 291 294 296 298 299 299 301 302 304 306 307 309 310 311 313 314 316 316 316 316 315 314 314 314 314 314 314 315 316 317 317 316 316 315 314 313 312 311 311 309 307 305 303 302 302 300 298 296 295 294 291 289 286 284 282 281 280 279 279 278 277 277 276 276 275 275
207 212 216 220 224 228 233 237 242 247 252 256 261 265 269 273 276 279 281 285 288 291 294 296 297 298 299 300 302 304 306 308 310 313 315 317 318 318 318 316 316 316 316 317 317 318 319 320 321 323 324 324 324 324 324 323 322 320 318 316 314 313 311 309 307 306 304 302 301 299 297 296 294 293 291 290 288 286 285 284 283 282 281 280 279 278 278 277
208 212 216 221 225 229 235 240 245 250 254 259 264 268 272 275 278 281 285 288 292 294 296 297 298 299 301 304 307 309 311 313 316 318 320 320 319 318 317 318 319 320 321 323 323 325 326 327 327 327 328 328 329 328 327 327 326 324 322 320 318 316 314 311 309 308 306 304 304 302 300 298 296 294 293 291 290 289 288 287 285 284 283 282 282 281 281 281
207 212 216 221 226 231 237 242 248 253 258 262 267 270 274 277 281 285 289 292 294 295 296 297 299 301 304 307 310 313 316 319 321 321 321 319 318 319 320 322 324 325 326 327 328 329 329 329 329 330 332 332 332 330 330 329 328 327 325 324 321 319 318 315 313 312 310 308 307 305 303 300 298 295 294 292 291 290 289 288 287 286 286 286 286 286 285 284
207 211 216 221 226 232 239 245 251 256 261 266 270 274 278 282 286 290 292 293 294 295 297 300 303 307 309 311 314 317 321 323 321 318 318 319 321 323 325 326 327 327 329 329 330 331 331 333 334 335 336 335 333 332 331 330 329 329 328 326 324 322 321 319 318 316 313 311 310 307 304 302 299 297 295 294 292 291 290 289 289 289 289 289 289 287 286 284
207 211 216 222 229 236 242 249 255 260 265 269 274 278 283 287 290 291 292 293 295 297 301 305 308 310 313 317 321 324 324 322 320 321 324 325 327 329 330 331 332 332 334 334 335 337 338 339 338 338 337 336 335 333 332 332 331 332 331 329 327 325 323 321 320 318 314 312 310 307 305 302 300 298 296 295 294 293 291 291 291 291 291 290 288 286 285 284
208 214 220 228 235 242 248 254 260 265 270 276 280 285 288 289 290 291 293 295 298 303 306 309 312 316 321 326 327 325 322 323 324 326 330 332 334 336 336 338 340 340 341 342 342 342 342 341 340 339 338 338 337 335 334 334 334 334 334 332 330 328 325 323 321 319 316 313 311 309 306 303 300 298 297 296 295 294 293 294 294 293 292 290 288 288 287 286
212 219 227 234 241 248 255 261 267 272 277 282 284 287 288 289 291 293 296 300 304 307 310 316 322 327 331 330 325 323 324 327 331 336 339 341 342 342 343 344 345 345 345 345 345 344 343 343 342 341 340 340 339 337 336 336 336 336 335 333 330 328 326 324 322 321 318 315 313 311 309 306 303 299 297 297 297 296 297 298 297 294 292 291 291 290 289 289
217 224 232 240 248 256 263 268 273 277 280 283 284 286 288 291 295 298 302 305 308 312 320 328 332 332 330 326 324 327 332 337 340 344 345 345 346 347 348 348 348 348 348 347 347 346 346 345 344 343 343 343 341 340 338 338 338 337 336 333 331 329 328 326 324 322 320 317 315 314 312 310 307 302 301 300 299 300 301 300 298 296 295 294 293 293 292 292
219 229 240 250 259 264 268 271 273 277 280 283 286 289 293 297 300 303 307 311 318 329 335 336 334 330 328 328 332 339 343 344 346 347 348 350 352 352 352 352 351 350 350 350 349 349 349 347 346 346 346 345 344 342 341 340 339 338 337 335 332 331 330 328 326 324 322 320 318 317 314 312 309 306 304 303 303 305 304 302 300 299 297 296 295 295 295 294
227 241 251 257 260 263 265 269 273 278 283 287 290 294 298 301 305 311 319 330 341 343 339 335 332 331 335 340 346 349 351 352 354 355 356 357 356 356 355 354 353 352 351 351 351 352 352 350 349 350 349 348 346 345 344 342 341 340 339 337 335 334 333 330 328 326 323 321 320 319 316 313 311 308 307 307 308 308 305 303 302 300 298 297 297 297 295 294
230 238 244 247 252 258 265 273 279 283 287 291 295 299 303 309 319 334 346 353 350 340 333 333 335 340 346 351 353 355 357 359 360 360 0 360 359 358 357 355 354 354 354 353 352 355 355 353 353 354 353 351 349 347 346 345 344 342 341 340 338 336 335 333 330 327 325 322 322 321 317 313 311 309 309 309 309 308 306 304 302 300 299 299 299 297 296 295
215 224 233 242 254 264 272 278 282 287 292 297 301 307 318 335 353 360 359 353 343 336 337 340 345 350 354 357 359 1 2 2 2 2 2 1 0 359 358 357 357 358 358 357 355 356 358 356 355 356 355 354 352 349 348 347 346 344 343 342 341 339 337 334 331 329 327 325 325 322 317 314 312 312 312 311 310 309 307 305 303 302 303 303 302 300 299 298
209 225 241 255 265 271 276 281 287 294 298 303 312 337 1 8 7 3 357 348 342 343 347 352 358 1 4 6 6 6 6 6 6 5 4 3 1 1 0 1 2 3 5 4 0 359 0 359 357 358 357 355 354 352 350 349 348 346 345 344 343 341 340 337 333 332 331 329 326 323 319 316 315 315 315 313 312 310 308 307 306 307 307 306 304 303 303 302
228 246 257 265 271 278 283 288 295 298 304 331 9 22 19 13 7 0 354 349 350 355 360 5 8 9 10 10 9 9 9 9 8 7 5 4 2 2 2 3 4 4 6 8 6 2 2 1 360 360 359 357 356 354 352 351 349 348 347 345 344 343 343 340 336 336 336 332 327 324 321 318 317 318 318 317 316 314 312 312 312 312 311 309 307 306 304 302
253 264 271 275 279 283 286 291 298 310 19 41 35 26 18 11 5 359 356 359 4 8 11 13 14 13 13 12 12 12 12 10 8 7 6 4 3 2 2 2 2 3 5 7 8 5 2 3 2 1 1 358 357 355 354 353 351 350 349 347 345 345 345 344 340 339 339 335 330 327 324 321 320 322 322 321 320 318 317 317 316 315 313 311 308 306 304 303
271 275 276 279 281 282 282 290 70 67 63 49 30 23 16 7 3 3 6 11 14 16 17 17 16 15 15 15 16 15 13 11 8 7 7 6 6 5 5 4 4 4 5 7 9 7 3 2 3 2 1 360 358 357 356 355 353 352 351 349 348 346 347 346 343 341 340 337 334 330 326 323 324 326 326 324 323 321 321 320 319 318 316 314 312 310 308 308
270 271 275 279 275 243 127 103 83 71 60 37 25 21 13 7 9 12 16 18 18 18 19 18 17 17 17 18 18 16 14 12 9 9 9 8 8 8 7 7 6 6 7 8 10 10 6 3 3 3 2 1 360 358 357 356 355 353 352 351 350 348 347 347 345 343 341 340 338 334 329 325 327 330 330 327 325 324 324 323 321 321 319 318 315 312 310 310
256 261 269 166 136 125 109 87 71 62 45 29 26 19 11 13 17 20 21 21 22 21 20 19 18 19 20 19 18 16 14 13 12 11 11 10 10 9 9 9 9 8 8 8 9 11 9 6 5 4 3 3 2 360 358 357 356 354 353 353 351 349 347 347 346 344 342 341 340 337 331 327 329 333 332 329 326 325 325 324 323 322 321 317 314 312 312 312
179 119 114 120 122 111 91 74 63 47 32 30 26 16 15 20 22 24 25 25 24 23 22 21 21 22 22 20 18 16 14 14 13 13 12 12 11 11 10 10 10 9 9 9 9 11 11 8 6 6 5 4 3 2 360 358 357 355 354 353 352 351 350 348 346 345 344 342 343 342 334 329 332 335 334 331 328 327 327 326 325 323 319 316 315 315 315 314
117 113 115 116 110 92 77 69 54 35 33 32 24 18 23 27 28 29 29 27 25 24 24 24 24 23 22 20 18 17 16 15 14 14 13 13 12 12 12 11 11 10 10 9 9 10 12 11 8 7 7 5 4 3 1 359 358 356 355 353 352 352 352 350 347 346 346 344 345 347 338 332 334 337 335 333 331 330 329 328 327 324 320 319 318 317 316 315
114 112 111 105 91 79 72 63 43 37 37 32 24 26 31 33 34 32 30 28 27 26 27 27 26 24 22 20 19 18 17 16 15 14 14 14 13 12 12 11 11 11 10 10 10 10 11 12 10 8 8 6 5 4 2 1 359 357 356 354 353 352 353 353 350 348 348 346 346 348 342 335 336 339 338 336 334 333 333 333 332 328 325 323 322 320 318 316
111 106 100 88 79 75 66 49 41 40 38 30 29 35 38 38 36 33 30 29 28 29 29 29 27 24 22 20 20 18 17 16 15 15 14 14 14 13 12 12 12 11 11 11 11 10 11 12 12 10 9 8 6 4 3 2 0 358 357 356 354 353 353 354 353 350 349 348 347 347 344 338 338 340 339 337 336 336 337 338 337 332 329 328 326 323 320 320
103 96 87 78 75 69 55 47 43 40 37 34 39 43 43 40 36 33 31 31 31 32 31 30 27 25 22 21 19 18 17 16 15 15 14 14 13 13 12 12 12 12 12 11 11 11 12 13 13 12 10 9 8 6 4 2 1 359 358 357 356 355 354 354 354 352 351 349 349 349 345 340 340 341 340 339 339 338 339 341 339 335 333 332 329 326 324 323
95 87 80 75 69 58 54 50 42 40 42 45 48 47 44 40 36 34 33 33 34 34 32 29 27 25 23 21 19 18 17 16 15 15 14 14 13 12 12 12 12 12 12 12 12 11 11 13 14 14 13 11 10 9 6 4 3 1 359 358 357 356 356 355 354 354 352 350 350 350 346 341 341 342 341 341 340 340 341 342 341 338 336 334 331 328 326 325
90 85 80 72 62 58 58 51 42 47 52 53 51 48 43 39 36 35 36 36 36 34 31 29 26 24 23 21 19 18 17 16 15 14 14 13 12 12 12 11 12 12 12 13 13 12 11 12 13 14 14 14 12 11 10 7 6 4 1 360 359 358 357 357 355 354 352 350 349 351 349 344 343 344 342 342 342 342 342 343 342 340 338 335 332 328 326 326
91 85 76 67 60 60 60 50 49 56 58 55 51 47 43 40 38 38 38 38 36 33 30 28 25 24 22 20 19 18 17 16 14 13 13 12 12 11 11 11 11 12 13 13 13 13 12 11 11 11 11 12 12 11 10 9 8 6 4 2 0 359 358 358 357 355 353 351 349 350 351 348 346 346 345 344 343 343 343 344 343 341 339 335 331 329 328 328
91 81 72 65 61 62 59 54 58 61 58 55 51 47 43 41 40 40 39 37 35 32 30 27 24 23 21 20 18 18 17 15 14 12 12 11 11 11 11 11 12 12 13 13 13 14 14 13 12 11 11 11 11 11 10 10 9 7 5 3 1 360 359 358 358 356 355 353 350 350 351 351 349 348 347 346 345 344 345 345 344 342 339 335 332 331 330 330
85 77 71 66 64 65 62 61 63 62 58 55 51 46 44 43 42 41 39 37 34 31 29 27 24 22 20 19 18 17 16 15 13 12 11 11 11 10 10 11 11 12 12 13 14 14 15 14 13 13 12 12 12 12 11 10 9 8 7 4 2 1 360 359 358 357 356 355 354 351 351 352 351 349 348 347 347 346 347 346 344 342 339 335 333 333 333 333
82 77 72 68 67 66 65 65 64 61 57 55 51 47 45 44 43 41 38 36 34 31 29 26 23 22 20 19 17 17 16 14 13 12 11 10 10 10 10 10 11 12 12 13 13 14 15 15 15 14 14 13 13 13 12 11 10 9 7 6 3 1 1 359 358 358 357 356 356 355 353 354 354 351 349 348 348 348 349 347 345 343 341 338 336 336 336 335
81 76 70 68 67 66 66 66 64 60 57 54 50 47 46 44 42 40 38 36 34 31 28 26 23 21 20 18 17 16 15 14 13 11 10 10 10 9 9 10 10 11 12 12 13 14 15 15 15 15 15 14 13 13 13 12 11 9 8 7 4 2 1 0 359 359 359 357 358 358 357 356 356 354 351 349 348 349 350 350 348 346 344 342 340 338 337 338
80 75 69 66 68 68 67 66 62 60 57 53 49 48 46 44 42 41 38 36 34 31 28 25 23 21 19 18 17 16 15 14 13 11 10 9 9 8 8 9 9 10 11 12 12 13 14 15 15 15 15 15 14 14 13 12 11 10 9 8 6 3 2 2 0 0 1 0 359 360 359 358 357 355 352 350 350 351 352 351 349 348 347 345 343 340 339 340
79 73 68 68 70 70 68 65 62 59 55 52 49 48 46 44 42 40 38 35 33 29 27 25 22 20 19 17 16 16 15 14 13 11 10 8 8 7 7 8 8 8 10 11 11 12 13 14 15 15 15 15 14 14 14 13 12 11 9 8 7 5 3 3 2 1 2 2 1 0 360 359 358 357 354 353 351 352 353 352 351 350 348 347 346 343 342 343
79 71 68 71 73 71 68 64 61 58 54 51 50 48 45 44 42 40 37 34 31 28 26 24 21 20 18 16 15 15 14 13 12 11 10 9 8 7 7 7 7 7 8 9 11 11 12 13 15 15 15 15 14 14 14 14 13 11 10 9 8 7 5 4 4 3 3 3 2 1 0 0 0 359 357 355 352 352 353 353 352 352 351 349 348 345 344 345
79 70 70 75 75 71 68 64 60 56 53 51 50 47 45 43 41 39 36 32 30 27 25 23 21 19 17 15 15 14 14 13 12 11 11 10 9 8 7 7 6 6 7 8 10 11 12 13 14 14 15 15 15 14 13 14 13 11 11 9 8 8 7 5 5 5 4 3 3 2 1 1 1 1 0 358 355 353 353 353 353 353 353 352 349 347 347 347